Погода в Ставотине

Россия / Ярославская область     57°18′26″N   39°56′43″E
темп.,
°C
ветер,
м/с
пор.,
м/с
влажн.,
%
обл.,
%
осадки,
мм/ч
давл.,
гПа
погр.,
м
24 октября, вс
вс2400:00+5зюз498598 0.4 1006638
03:00+2зюз3993100 0.5 1007352
06:00+3зюз3891100 0.0 1007581
09:00+3з4896100 0.2 1008647
12:00+3з4796100 0.4 1009781
15:00+1ссз51296100 1.8 1012544
18:00+1ссз6128071 0.3 10161124
21:000ссз512825 0.3 1019703
25 октября, пн
пн2500:00−1ссз411845 0.0 1021533
03:00−2сз410875 0.0 1024407
06:00−2зсз37925 0.0 1026242
09:00−1зсз358796 0.0 1027264
12:00+1зюз4563100 0.0 1027644
15:00+2юз4863100 0.0 1025747
18:00+1юз5127099 0.0 1024603
21:00+2юз6137683 0.0 1022670
26 октября, вт
вт2600:00+1зюз5138096 0.0 1021573
03:00+1зюз5138697 0.0 1020563
06:00+1зюз5128956 0.0 1019476
09:00+1зюз51287100 0.0 1020409
12:00+4зюз51072100 0.0 1019521
15:00+4зюз51173100 0.0 1018555
18:00+3юз4138189 0.0 1018421
21:00+2юз41286100 0.0 1018369
27 октября, ср
ср2700:00+2юз41287100 0.0 1017381
03:00+1юз41188100 0.0 1017333
06:000юз411908 0.0 1016321
09:00+2юз41284100 0.0 1015435
12:00+5юз51273100 0.0 1014566
15:00+5юз51271100 0.0 1013688
18:00+5зюз51176100 0.0 1013816
21:00+3зюз41097100 2.3 1013473
28 октября, чт
чт2800:00+4з41193100 0.1 1013437
03:00+5з51287100 0.1 1014564
06:00+5з51186100 0.0 1015571
09:00+5з51183100 0.0 1017612
12:00+6з4977100 0.0 1018767
15:00+6з3781100 0.0 1019509
18:00+5зсз1188100 0.0 102013
21:00+4всв3690100 0.0 1021255